Ely, MN

9:55 AM CST on December 13, 2017 (GMT -0600)
Ely Municipal

Weather History for KELO - August, 2012

Change the Weather History Date:

Sunday, August 19, 2012

  Actual Average Record
Temperature  
Mean Temperature 50 °F -  
Max Temperature 66 °F 72 °F 84 °F (2003)
Min Temperature 35 °F 50 °F 35 °F (2012)
Degree Days  
Heating Degree Days 14    
Moisture  
Dew Point 41 °F    
Average Humidity 69    
Maximum Humidity 100    
Minimum Humidity 34    
Precipitation  
Precipitation 0.00 in - - ()
Sea Level Pressure  
Sea Level Pressure 30.02 in    
Wind  
Wind Speed 2 mph (NW)    
Max Wind Speed 13 mph    
Max Gust Speed 21 mph    
Visibility 9 miles    
Events Fog    
Averages and records for this station are not official NWS values.
T = Trace of Precipitation, MM = Missing Value Source: NWS Daily Summary

Daily Weather History Graph

Daily Weather History Graph

Search for Another Location

Airport or City:

Trip Planner

Search our weather history database for the weather conditions in past years. The results will help you decide how hot, cold, wet, or windy it might be!

Date:

Astronomy

Aug. 19, 2012 Rise Set
Actual Time 6:08 AM CDT 8:11 PM CDT
Civil Twilight 5:35 AM CDT 8:45 PM CDT
Nautical Twilight 4:53 AM CDT 9:26 PM CDT
Astronomical Twilight 4:07 AM CDT 10:12 PM CDT
Moon 8:39 AM CDT (8/19) 8:43 PM CDT (8/19)
Length of Visible Light 15h 10m
Length of Day
14h 03m
Waxing Crescent, 5% of the Moon is Illuminated
Aug 19
Waxing Crescent
Aug 24
First Quarter
Aug 31
Full
Sep 8
Last Quarter
Sep 15
New

Hourly Weather History & Observations

Time (CDT) Temp. Dew Point Humidity Pressure Visibility Wind Dir Wind Speed Gust Speed Precip Events Conditions
12:13 AM 44.6 °F 44.6 °F 100% 30.00 in 7.0 mi Calm Calm - N/A   Clear
12:32 AM 42.8 °F 42.8 °F 100% 30.00 in 3.0 mi Calm Calm - N/A   Clear
12:53 AM 42.8 °F 42.8 °F 100% 30.00 in 1.5 mi Calm Calm - N/A   Mist
1:13 AM 42.8 °F 42.8 °F 100% 30.00 in 0.8 mi Calm Calm - N/A   Mist
1:32 AM 41.0 °F 41.0 °F 100% 30.01 in 0.5 mi Calm Calm - N/A Fog Fog
1:53 AM 41.0 °F 41.0 °F 100% 30.01 in 7.0 mi Calm Calm - N/A   Clear
2:13 AM 39.2 °F 39.2 °F 100% 30.01 in 7.0 mi Calm Calm - N/A   Clear
2:32 AM 39.2 °F 39.2 °F 100% 30.01 in 10.0 mi Calm Calm - N/A   Clear
2:53 AM 39.2 °F 39.2 °F 100% 30.01 in 10.0 mi Calm Calm - N/A   Clear
3:13 AM 39.2 °F 39.2 °F 100% 30.02 in 10.0 mi Calm Calm - N/A   Clear
3:32 AM 39.2 °F 37.4 °F 93% 30.02 in 10.0 mi Calm Calm - N/A   Clear
3:53 AM 39.2 °F 37.4 °F 93% 30.02 in 10.0 mi Calm Calm - N/A   Clear
4:13 AM 37.4 °F 37.4 °F 100% 30.02 in 10.0 mi Calm Calm - N/A   Clear
4:32 AM 37.4 °F 37.4 °F 100% 30.02 in 1.5 mi Calm Calm - N/A   Mist
4:53 AM 37.4 °F 37.4 °F 100% 30.02 in 10.0 mi Calm Calm - N/A   Clear
5:13 AM 35.6 °F 35.6 °F 100% 30.02 in 5.0 mi Calm Calm - N/A   Clear
5:32 AM 35.6 °F 35.6 °F 100% 30.03 in 5.0 mi Calm Calm - N/A   Clear
5:53 AM 35.6 °F 35.6 °F 100% 30.03 in 7.0 mi Calm Calm - N/A   Clear
6:13 AM 35.6 °F 35.6 °F 100% 30.04 in 10.0 mi Calm Calm - N/A   Clear
6:32 AM 35.6 °F 35.6 °F 100% 30.04 in 5.0 mi Calm Calm - N/A   Clear
6:53 AM 35.6 °F 35.6 °F 100% 30.04 in 4.0 mi Calm Calm - N/A   Clear
7:13 AM 37.4 °F 37.4 °F 100% 30.04 in 3.0 mi Calm Calm - N/A   Clear
7:32 AM 39.2 °F 39.2 °F 100% 30.05 in 5.0 mi Calm Calm - N/A   Clear
7:53 AM 44.6 °F 44.6 °F 100% 30.05 in 10.0 mi Calm Calm - N/A   Clear
8:12 AM 48.2 °F 46.4 °F 93% 30.04 in 10.0 mi NW 3.5 mph - N/A   Clear
8:33 AM 51.8 °F 48.2 °F 88% 30.05 in 10.0 mi Calm Calm - N/A   Clear
8:53 AM 53.6 °F 46.4 °F 77% 30.05 in 10.0 mi Calm Calm - N/A   Clear
9:12 AM 55.4 °F 46.4 °F 72% 30.05 in 10.0 mi NE 3.5 mph - N/A   Clear
9:33 AM 55.4 °F 42.8 °F 63% 30.05 in 10.0 mi NE 4.6 mph - N/A   Clear
9:53 AM 57.2 °F 42.8 °F 59% 30.06 in 10.0 mi Calm Calm - N/A   Clear
10:13 AM 57.2 °F 42.8 °F 59% 30.06 in 10.0 mi NNE 3.5 mph - N/A   Clear
10:33 AM 59.0 °F 41.0 °F 51% 30.06 in 10.0 mi NNE 3.5 mph - N/A   Clear
10:53 AM 60.8 °F 39.2 °F 45% 30.06 in 10.0 mi NW 8.1 mph - N/A   Clear
11:12 AM 60.8 °F 39.2 °F 45% 30.06 in 10.0 mi Calm Calm - N/A   Clear
11:33 AM 62.6 °F 39.2 °F 42% 30.05 in 10.0 mi NW 8.1 mph - N/A   Clear
11:53 AM 62.6 °F 37.4 °F 39% 30.05 in 10.0 mi NNW 8.1 mph - N/A   Clear
12:12 PM 62.6 °F 35.6 °F 37% 30.05 in 10.0 mi North 4.6 mph - N/A   Clear
12:33 PM 62.6 °F 39.2 °F 42% 30.05 in 10.0 mi NW 5.8 mph - N/A   Clear
12:52 PM 64.4 °F 39.2 °F 40% 30.04 in 10.0 mi NW 5.8 mph - N/A   Clear
1:13 PM 64.4 °F 39.2 °F 40% 30.04 in 10.0 mi West 6.9 mph 16.1 mph N/A   Clear
1:33 PM 64.4 °F 39.2 °F 40% 30.04 in 10.0 mi WNW 9.2 mph 17.3 mph N/A   Clear
1:52 PM 64.4 °F 37.4 °F 37% 30.03 in 10.0 mi NW 9.2 mph 17.3 mph N/A   Clear
2:13 PM 64.4 °F 35.6 °F 34% 30.03 in 10.0 mi NNW 6.9 mph 17.3 mph N/A   Clear
2:33 PM 64.4 °F 39.2 °F 40% 30.02 in 10.0 mi WNW 8.1 mph - N/A   Clear
2:52 PM 66.2 °F 37.4 °F 35% 30.02 in 10.0 mi NW 12.7 mph 18.4 mph N/A   Clear
3:13 PM 66.2 °F 37.4 °F 35% 30.02 in 10.0 mi NW 8.1 mph 16.1 mph N/A   Clear
3:32 PM 66.2 °F 37.4 °F 35% 30.02 in 10.0 mi NW 11.5 mph - N/A   Clear
3:52 PM 66.2 °F 37.4 °F 35% 30.01 in 10.0 mi North 5.8 mph - N/A   Clear
4:12 PM 66.2 °F 39.2 °F 37% 30.01 in 10.0 mi WNW 9.2 mph - N/A   Clear
4:33 PM 66.2 °F 39.2 °F 37% 30.01 in 10.0 mi NNW 9.2 mph - N/A   Clear
4:52 PM 66.2 °F 39.2 °F 37% 30.00 in 10.0 mi NW 10.4 mph 20.7 mph N/A   Scattered Clouds
5:13 PM 66.2 °F 39.2 °F 37% 30.00 in 10.0 mi North 8.1 mph - N/A   Scattered Clouds
5:33 PM 66.2 °F 39.2 °F 37% 30.00 in 10.0 mi West 4.6 mph - N/A   Scattered Clouds
5:52 PM 66.2 °F 39.2 °F 37% 29.99 in 10.0 mi NNW 6.9 mph - N/A   Mostly Cloudy
6:13 PM 64.4 °F 39.2 °F 40% 29.99 in 10.0 mi NW 6.9 mph - N/A   Scattered Clouds
6:33 PM 64.4 °F 41.0 °F 42% 29.98 in 10.0 mi NW 5.8 mph - N/A   Clear
6:52 PM 64.4 °F 41.0 °F 42% 29.99 in 10.0 mi NNW 4.6 mph - N/A   Clear
7:13 PM 62.6 °F 42.8 °F 48% 29.98 in 10.0 mi NW 3.5 mph - N/A   Clear
7:33 PM 62.6 °F 42.8 °F 48% 29.98 in 10.0 mi WNW 4.6 mph - N/A   Clear
7:52 PM 60.8 °F 42.8 °F 52% 29.98 in 10.0 mi Calm Calm - N/A   Clear
8:13 PM 57.2 °F 44.6 °F 63% 29.99 in 10.0 mi Calm Calm - N/A   Clear
8:32 PM 55.4 °F 46.4 °F 72% 29.99 in 10.0 mi Calm Calm - N/A   Clear
8:53 PM 53.6 °F 46.4 °F 77% 29.99 in 10.0 mi Calm Calm - N/A   Mostly Cloudy
9:13 PM 55.4 °F 44.6 °F 67% 29.99 in 10.0 mi Calm Calm - N/A   Mostly Cloudy
9:32 PM 53.6 °F 46.4 °F 77% 29.99 in 10.0 mi Calm Calm - N/A   Scattered Clouds
9:52 PM 51.8 °F 46.4 °F 82% 30.00 in 10.0 mi Calm Calm - N/A   Scattered Clouds
10:13 PM 51.8 °F 44.6 °F 76% 30.00 in 10.0 mi Calm Calm - N/A   Scattered Clouds
10:33 PM 50.0 °F 44.6 °F 82% 30.00 in 10.0 mi Calm Calm - N/A   Clear
10:52 PM 48.2 °F 46.4 °F 93% 30.00 in 10.0 mi Calm Calm - N/A   Clear
11:13 PM 48.2 °F 44.6 °F 87% 30.00 in 10.0 mi Calm Calm - N/A   Clear
11:53 PM 46.4 °F 44.6 °F 93% 29.99 in 10.0 mi Calm Calm - N/A   Scattered Clouds